Tracking 20041 objects as of 22-Nov-2019
Live streaming from Space Station
objects crossing your sky now

SL-14 DEB

Track SL-14 DEB now!
10-day predictions


NORAD ID: 35521
Int'l Code: 1987-068CQ
Perigee: 939.2 km
Apogee: 951.3 km
Inclination: 82.6 °
Period: 103.8 minutes
Semi major axis: 7316 km
RCS: 0.0087 m2 (small)
Launch date: August 18, 1987
Source: Commonwealth of Independent States (former USSR) (CIS)
Launch site: PLESETSK MISSILE AND SPACE COMPLEX (PKMTR)

Note: This is SATELLITE DEBRIS
aabbcc
Your satellite tracking list
Your tracking list is empty




NASA's NSSDC Master Catalog

Two Line Element Set (TLE):
1 35521U 87068CQ  19322.94157963  .00000111  00000-0  81540-4 0  9991
2 35521  82.5593  28.0553 0008272 269.5777 211.3631 13.87287861766800
Source of the keplerian elements: AFSPC